QIANFAN-47 (62248 NORAD) Tracking and Keplerian Element Data

This shows tracking and keplerian element data for the satellite.

Feedback or suggestion? Click here.




ElementValue
Catalog62248
NameQIANFAN-47
Epoch Orbit5695
Epoch Day34.76977132
Epoch Year2025
RAAN73.1822
Inclination88.9887
Eccentricity0.0016229
Argument of Perigee31.3212
Mean Anonmoly328.8942
Mean Motion14.20586254
Decay Rate4.4E-06
L11 62248U 24232M 25034.76977132 .00000440 00000+0 19798-3 0 9995
L22 62248 88.9887 73.1822 0016229 31.3212 328.8942 14.20586254 56955



Live tracking and technical data element details for QIANFAN-47 (NORAD 62248). QIANFAN-47 can be tracked NOW for your location showing map with azimuth and elevation plus other details from your city location.







IsCatalogInMostPopularTable: catalog: 62248, numindb: 12
Update: records affected: 1



GetName: 62248 QIANFAN-47

Hit Count: updated at: Sun, 18 May 2025 22:16:20 GMT